Hourly Weather Kiyakovo

Today, 22 October, Thursday

Time Temperature Precipitation Wind Pressure Humidity
00:00 +5°C° 0.1 mm 3 mps 743 mmHg 94%
01:00 +7°C° 0.1 mm 3 mps 743 mmHg 94%
02:00 +6°C° 0 mm 4 mps 743 mmHg 93%
03:00 +6°C° 0.8 mm 4 mps 742 mmHg 94%
04:00 +6°C° 0.8 mm 5 mps 741 mmHg 95%
05:00 +7°C° 0.8 mm 5 mps 741 mmHg 96%
06:00 +7°C° 0.4 mm 5 mps 740 mmHg 93%
07:00 +7°C° 0.4 mm 5 mps 740 mmHg 91%
08:00 +8°C° 0.4 mm 6 mps 740 mmHg 89%
09:00 +8°C° 0 mm 6 mps 740 mmHg 85%
10:00 +9°C° 0 mm 6 mps 739 mmHg 81%
11:00 +10°C° 0 mm 7 mps 739 mmHg 77%
12:00 +11°C° 0 mm 7 mps 739 mmHg 77%
13:00 +11°C° 0 mm 7 mps 739 mmHg 76%
14:00 +12°C° 0 mm 7 mps 739 mmHg 76%
15:00 +12°C° 0 mm 8 mps 739 mmHg 77%
16:00 +12°C° 0 mm 8 mps 738 mmHg 78%
17:00 +12°C° 0 mm 8 mps 738 mmHg 79%
18:00 +12°C° 0 mm 8 mps 739 mmHg 80%
19:00 +12°C° 0 mm 8 mps 739 mmHg 80%
20:00 +12°C° 0 mm 7 mps 740 mmHg 81%
21:00 +12°C° 0 mm 7 mps 740 mmHg 81%
22:00 +12°C° 0 mm 7 mps 740 mmHg 82%
23:00 +13°C° 0 mm 6 mps 740 mmHg 82%

Tomorrow, 23 October, Friday

Time Temperature Precipitation Wind Pressure Humidity
00:00 +11°C° 0 mm 6 mps 740 mmHg 86%
01:00 +10°C° 0 mm 5 mps 741 mmHg 90%
02:00 +10°C° 0 mm 5 mps 741 mmHg 93%
03:00 +9°C° 0 mm 5 mps 741 mmHg 94%
04:00 +10°C° 0 mm 4 mps 741 mmHg 94%
05:00 +10°C° 0 mm 4 mps 740 mmHg 95%
06:00 +10°C° 0 mm 4 mps 740 mmHg 95%
07:00 +9°C° 0 mm 5 mps 740 mmHg 95%
08:00 +9°C° 0 mm 5 mps 740 mmHg 95%
09:00 +10°C° 0.1 mm 5 mps 739 mmHg 91%
10:00 +11°C° 0.1 mm 6 mps 739 mmHg 88%
11:00 +11°C° 0.1 mm 6 mps 739 mmHg 85%
12:00 +13°C° 0.6 mm 6 mps 738 mmHg 85%
13:00 +13°C° 0.6 mm 6 mps 738 mmHg 86%
14:00 +13°C° 0.6 mm 6 mps 738 mmHg 86%
15:00 +11°C° 0.2 mm 6 mps 738 mmHg 87%
16:00 +12°C° 0.2 mm 5 mps 738 mmHg 87%
17:00 +12°C° 0.2 mm 5 mps 738 mmHg 88%
18:00 +10°C° 0 mm 5 mps 738 mmHg 88%
19:00 +9°C° 0 mm 5 mps 739 mmHg 87%
20:00 +8°C° 0 mm 4 mps 739 mmHg 87%
21:00 +8°C° 0 mm 4 mps 739 mmHg 89%
22:00 +7°C° 0 mm 4 mps 739 mmHg 91%
23:00 +7°C° 0 mm 4 mps 740 mmHg 93%

Day after tomorrow, 24 October, Saturday

Time Temperature Precipitation Wind Pressure Humidity
00:00 +7°C° 0 mm 3 mps 740 mmHg 94%
01:00 +7°C° 0 mm 3 mps 740 mmHg 95%
02:00 +7°C° 0 mm 3 mps 741 mmHg 96%
03:00 +7°C° 0 mm 3 mps 741 mmHg 96%
04:00 +7°C° 0 mm 3 mps 741 mmHg 96%
05:00 +7°C° 0 mm 3 mps 740 mmHg 96%
06:00 +7°C° 0 mm 3 mps 741 mmHg 97%
07:00 +7°C° 0 mm 3 mps 741 mmHg 97%
08:00 +5°C° 0 mm 3 mps 741 mmHg 97%
09:00 +8°C° 0 mm 3 mps 741 mmHg 92%
10:00 +9°C° 0 mm 3 mps 741 mmHg 86%
11:00 +10°C° 0 mm 3 mps 741 mmHg 80%
12:00 +10°C° 0 mm 2 mps 741 mmHg 78%
13:00 +12°C° 0 mm 2 mps 741 mmHg 76%
14:00 +12°C° 0 mm 2 mps 741 mmHg 74%
15:00 +12°C° 0 mm 2 mps 741 mmHg 78%
16:00 +10°C° 0 mm 2 mps 741 mmHg 83%
17:00 +9°C° 0 mm 2 mps 740 mmHg 87%
18:00 +9°C° 0 mm 3 mps 741 mmHg 90%
19:00 +9°C° 0 mm 3 mps 741 mmHg 93%
20:00 +7°C° 0 mm 4 mps 741 mmHg 96%
21:00 +8°C° 0.2 mm 4 mps 741 mmHg 94%
22:00 +8°C° 0.2 mm 5 mps 741 mmHg 92%
23:00 +9°C° 0.2 mm 5 mps 741 mmHg 90%

, 25 October, Sunday

Time Temperature Precipitation Wind Pressure Humidity
00:00 +9°C° 0 mm 5 mps 741 mmHg 89%
01:00 +8°C° 0 mm 5 mps 742 mmHg 87%
02:00 +8°C° 0 mm 5 mps 742 mmHg 85%
03:00 +8°C° 0 mm 4 mps 743 mmHg 87%
04:00 +7°C° 0 mm 4 mps 743 mmHg 88%
05:00 +8°C° 0 mm 3 mps 744 mmHg 90%
06:00 +8°C° 0 mm 3 mps 744 mmHg 90%
07:00 +8°C° 0 mm 3 mps 744 mmHg 91%
08:00 +8°C° 0 mm 3 mps 744 mmHg 92%
09:00 +9°C° 0 mm 3 mps 745 mmHg 88%
10:00 +9°C° 0 mm 3 mps 745 mmHg 84%
11:00 +10°C° 0 mm 3 mps 746 mmHg 80%
12:00 +10°C° 0 mm 3 mps 746 mmHg 79%
13:00 +11°C° 0 mm 3 mps 746 mmHg 78%
14:00 +11°C° 0 mm 3 mps 746 mmHg 77%
15:00 +10°C° 0 mm 2 mps 746 mmHg 79%
16:00 +10°C° 0 mm 2 mps 746 mmHg 81%
17:00 +11°C° 0 mm 1 mps 746 mmHg 83%
18:00 +10°C° 0 mm 1 mps 747 mmHg 84%
19:00 +10°C° 0 mm 1 mps 747 mmHg 85%
20:00 +10°C° 0 mm 1 mps 747 mmHg 86%
21:00 +9°C° 0 mm 2 mps 747 mmHg 88%
22:00 +8°C° 0 mm 2 mps 748 mmHg 89%
23:00 +8°C° 0 mm 2 mps 748 mmHg 91%

25 October, Sunday

Time Temperature Precipitation Wind Pressure Humidity
00:00 +9°C° 0 mm 5 mps 741 mmHg 89%
01:00 +8°C° 0 mm 5 mps 742 mmHg 87%
02:00 +8°C° 0 mm 5 mps 742 mmHg 85%
03:00 +8°C° 0 mm 4 mps 743 mmHg 87%
04:00 +7°C° 0 mm 4 mps 743 mmHg 88%
05:00 +8°C° 0 mm 3 mps 744 mmHg 90%
06:00 +8°C° 0 mm 3 mps 744 mmHg 90%
07:00 +8°C° 0 mm 3 mps 744 mmHg 91%
08:00 +8°C° 0 mm 3 mps 744 mmHg 92%
09:00 +9°C° 0 mm 3 mps 745 mmHg 88%
10:00 +9°C° 0 mm 3 mps 745 mmHg 84%
11:00 +10°C° 0 mm 3 mps 746 mmHg 80%
12:00 +10°C° 0 mm 3 mps 746 mmHg 79%
13:00 +11°C° 0 mm 3 mps 746 mmHg 78%
14:00 +11°C° 0 mm 3 mps 746 mmHg 77%
15:00 +10°C° 0 mm 2 mps 746 mmHg 79%
16:00 +10°C° 0 mm 2 mps 746 mmHg 81%
17:00 +11°C° 0 mm 1 mps 746 mmHg 83%
18:00 +10°C° 0 mm 1 mps 747 mmHg 84%
19:00 +10°C° 0 mm 1 mps 747 mmHg 85%
20:00 +10°C° 0 mm 1 mps 747 mmHg 86%
21:00 +9°C° 0 mm 2 mps 747 mmHg 88%
22:00 +8°C° 0 mm 2 mps 748 mmHg 89%
23:00 +8°C° 0 mm 2 mps 748 mmHg 91%

26 October, Monday

Time Temperature Precipitation Wind Pressure Humidity
00:00 +8°C° 0 mm 2 mps 748 mmHg 91%
01:00 +7°C° 0 mm 2 mps 748 mmHg 92%
02:00 +7°C° 0 mm 3 mps 748 mmHg 92%
03:00 +7°C° 0 mm 3 mps 748 mmHg 93%
04:00 +5°C° 0 mm 3 mps 748 mmHg 93%
05:00 +5°C° 0 mm 3 mps 748 mmHg 94%
06:00 +5°C° 0 mm 3 mps 748 mmHg 93%
07:00 +5°C° 0 mm 3 mps 748 mmHg 93%
08:00 +5°C° 0 mm 3 mps 749 mmHg 93%
09:00 +6°C° 0 mm 4 mps 749 mmHg 88%
10:00 +7°C° 0 mm 4 mps 749 mmHg 83%
11:00 +8°C° 0 mm 5 mps 749 mmHg 78%
12:00 +8°C° 0 mm 5 mps 749 mmHg 78%
13:00 +8°C° 0 mm 5 mps 748 mmHg 78%
14:00 +8°C° 0 mm 5 mps 748 mmHg 78%
15:00 +7°C° 0 mm 5 mps 748 mmHg 80%
16:00 +7°C° 0 mm 4 mps 748 mmHg 81%
17:00 +7°C° 0 mm 4 mps 748 mmHg 82%
18:00 +7°C° 0 mm 4 mps 748 mmHg 84%
19:00 +6°C° 0 mm 4 mps 747 mmHg 87%
20:00 +6°C° 0 mm 4 mps 747 mmHg 89%
21:00 +6°C° 0 mm 4 mps 747 mmHg 90%
22:00 +6°C° 0 mm 5 mps 747 mmHg 90%
23:00 +6°C° 0 mm 5 mps 747 mmHg 90%

27 October, Tuesday

Time Temperature Precipitation Wind Pressure Humidity
00:00 +6°C° 0 mm 5 mps 747 mmHg 90%
01:00 +6°C° 0 mm 5 mps 746 mmHg 89%
02:00 +6°C° 0 mm 5 mps 746 mmHg 89%
03:00 +7°C° 0.2 mm 5 mps 746 mmHg 90%
04:00 +7°C° 0.2 mm 5 mps 746 mmHg 90%
05:00 +7°C° 0.2 mm 5 mps 746 mmHg 91%
06:00 +7°C° 0.4 mm 5 mps 746 mmHg 92%
07:00 +7°C° 0.4 mm 5 mps 745 mmHg 92%
08:00 +7°C° 0.4 mm 5 mps 745 mmHg 92%
09:00 +8°C° 0.1 mm 5 mps 745 mmHg 91%
10:00 +9°C° 0.1 mm 5 mps 745 mmHg 89%
11:00 +10°C° 0.1 mm 6 mps 745 mmHg 87%
12:00 +10°C° 0 mm 5 mps 745 mmHg 87%
13:00 +10°C° 0 mm 5 mps 745 mmHg 86%
14:00 +10°C° 0 mm 5 mps 745 mmHg 86%
15:00 +11°C° 0 mm 4 mps 745 mmHg 86%
16:00 +11°C° 0 mm 4 mps 745 mmHg 86%
17:00 +11°C° 0 mm 4 mps 745 mmHg 86%
18:00 +10°C° 0 mm 4 mps 745 mmHg 88%
19:00 +10°C° 0 mm 4 mps 745 mmHg 89%
20:00 +10°C° 0 mm 4 mps 745 mmHg 91%
21:00 +10°C° 0 mm 4 mps 745 mmHg 92%
22:00 +8°C° 0 mm 4 mps 745 mmHg 94%
23:00 +8°C° 0 mm 4 mps 745 mmHg 95%
Show more